Gustavus, AK

3:20 AM AKDT on September 21, 2017 (GMT -0800)
Gustavus

Weather History for PAGS - December, 2011

Change the Weather History Date:

Thursday, December 1, 2011

  Actual Average Record
Temperature  
Mean Temperature 40 °F -  
Max Temperature 42 °F 33 °F 48 °F (1963)
Min Temperature 37 °F 22 °F -1 °F (1990)
Degree Days  
Heating Degree Days 26    
Moisture  
Dew Point 33 °F    
Average Humidity 76    
Maximum Humidity 93    
Minimum Humidity 61    
Precipitation  
Precipitation 0.00 in - - ()
Sea Level Pressure  
Sea Level Pressure 29.96 in    
Wind  
Wind Speed 15 mph (SW)    
Max Wind Speed 23 mph    
Max Gust Speed 34 mph    
Visibility 10 miles    
Events      
Averages and records for this station are not official NWS values.
T = Trace of Precipitation, MM = Missing Value Source: NWS Daily Summary

Daily Weather History Graph

Daily Weather History Graph

Search for Another Location

Airport or City:

Trip Planner

Search our weather history database for the weather conditions in past years. The results will help you decide how hot, cold, wet, or windy it might be!

Date:

Astronomy

Dec. 01, 2011 Rise Set
Actual Time 8:25 AM AKST 3:17 PM AKST
Civil Twilight 7:35 AM AKST 4:08 PM AKST
Nautical Twilight 6:43 AM AKST 4:59 PM AKST
Astronomical Twilight 5:55 AM AKST 5:47 PM AKST
Moon 12:12 PM AKST (12/1) 11:33 PM AKST (12/1)
Length of Visible Light 8h 32m
Length of Day
6h 52m
Waxing Crescent, 45% of the Moon is Illuminated
Dec 1
Waxing Crescent
Dec 2
First Quarter
Dec 10
Full
Dec 17
Last Quarter
Dec 24
New

Hourly Weather History & Observations

Time (AKST) Temp. Windchill Dew Point Humidity Pressure Visibility Wind Dir Wind Speed Gust Speed Precip Events Conditions
3:16 AM 37.4 °F 26.4 °F 33.8 °F 87% 29.73 in 6.0 mi SE 23.0 mph 31.1 mph N/A   Overcast
3:36 AM 37.4 °F 26.4 °F 33.8 °F 87% 29.72 in 7.0 mi SE 23.0 mph 28.8 mph N/A   Overcast
3:56 AM 37.4 °F 26.9 °F 33.8 °F 87% 29.72 in 9.0 mi SE 20.7 mph 24.2 mph N/A   Overcast
4:16 AM 37.4 °F 26.9 °F 33.8 °F 87% 29.72 in 10.0 mi SE 20.7 mph 27.6 mph N/A   Overcast
4:36 AM 37.4 °F 27.2 °F 33.8 °F 87% 29.71 in 9.0 mi SE 19.6 mph - N/A   Overcast
4:56 AM 37.4 °F 28.2 °F 33.8 °F 87% 29.71 in 10.0 mi SE 16.1 mph - N/A   Overcast
5:16 AM 39.2 °F 31.6 °F 35.6 °F 87% 29.70 in 10.0 mi SE 12.7 mph - N/A   Overcast
5:36 AM 39.2 °F 31.6 °F 35.6 °F 87% 29.71 in 10.0 mi South 12.7 mph 16.1 mph N/A   Overcast
5:56 AM 39.2 °F 31.6 °F 37.4 °F 93% 29.72 in 10.0 mi SW 12.7 mph 20.7 mph N/A   Mostly Cloudy
6:16 AM 39.2 °F 30.5 °F 35.6 °F 87% 29.70 in 10.0 mi SW 16.1 mph 21.9 mph N/A   Mostly Cloudy
6:36 AM 41.0 °F 31.6 °F 35.6 °F 81% 29.70 in 10.0 mi SW 20.7 mph 29.9 mph N/A   Overcast
6:56 AM - - - N/A% 29.69 in 10.0 mi SW 23.0 mph 34.5 mph N/A   Overcast
7:16 AM 41.0 °F 32.5 °F 35.6 °F 81% 29.72 in 10.0 mi WSW 17.3 mph 23.0 mph N/A   Mostly Cloudy
7:36 AM 41.0 °F 31.6 °F 33.8 °F 76% 29.73 in 10.0 mi SW 20.7 mph 31.1 mph N/A   Partly Cloudy
7:56 AM 39.2 °F 29.6 °F 32.0 °F 75% 29.74 in 10.0 mi WSW 19.6 mph 29.9 mph N/A   Clear
8:16 AM 39.2 °F 31.6 °F 33.8 °F 81% 29.76 in 10.0 mi WSW 12.7 mph 18.4 mph N/A   Clear
8:36 AM 41.0 °F 32.8 °F 33.8 °F 76% 29.78 in 10.0 mi WSW 16.1 mph 21.9 mph N/A   Clear
8:56 AM 39.2 °F 31.2 °F 30.2 °F 70% 29.79 in 10.0 mi West 13.8 mph 33.4 mph N/A   Clear
9:16 AM 39.2 °F 30.5 °F 32.0 °F 75% 29.81 in 10.0 mi WSW 16.1 mph 26.5 mph N/A   Clear
9:36 AM 41.0 °F 38.0 °F 32.0 °F 70% 29.85 in 10.0 mi West 4.6 mph 19.6 mph N/A   Partly Cloudy
9:56 AM 39.2 °F 33.0 °F 33.8 °F 81% 29.86 in 10.0 mi West 9.2 mph 23.0 mph N/A   Mostly Cloudy
10:16 AM 37.4 °F 29.8 °F 33.8 °F 87% 29.88 in 10.0 mi SW 11.5 mph 20.7 mph N/A   Overcast
10:36 AM 37.4 °F - 33.8 °F 87% 29.88 in 10.0 mi Calm Calm - N/A   Mostly Cloudy
10:56 AM 39.2 °F 37.0 °F 33.8 °F 81% 29.90 in 10.0 mi SW 3.5 mph - N/A   Partly Cloudy
11:16 AM 39.2 °F - 33.8 °F 81% 29.91 in 10.0 mi Calm Calm - N/A   Scattered Clouds
11:36 AM 39.2 °F 34.2 °F 33.8 °F 81% 29.92 in 10.0 mi WSW 6.9 mph - N/A   Mostly Cloudy
11:56 AM 41.0 °F - 33.8 °F 76% 29.94 in 10.0 mi Calm Calm - N/A   Overcast
12:16 PM 41.0 °F - 33.8 °F 76% 29.95 in 10.0 mi Calm Calm - N/A   Overcast
12:36 PM 42.8 °F 39.3 °F 33.8 °F 70% 29.96 in 10.0 mi WSW 5.8 mph - N/A   Overcast
12:56 PM 42.8 °F 36.6 °F 33.8 °F 70% 29.98 in 10.0 mi WSW 11.5 mph 19.6 mph N/A   Overcast
1:16 PM 42.8 °F 34.5 °F 33.8 °F 70% 29.98 in 10.0 mi WSW 18.4 mph 26.5 mph N/A   Overcast
1:36 PM 41.0 °F 33.9 °F 33.8 °F 76% 30.00 in 10.0 mi WSW 12.7 mph 20.7 mph N/A   Overcast
1:56 PM 41.0 °F 34.3 °F 33.8 °F 76% 30.03 in 10.0 mi WSW 11.5 mph - N/A   Mostly Cloudy
2:16 PM 41.0 °F 35.2 °F 33.8 °F 76% 30.04 in 10.0 mi WSW 9.2 mph 18.4 mph N/A   Overcast
2:36 PM 41.0 °F - 35.6 °F 81% 30.06 in 10.0 mi Calm Calm - N/A   Overcast
2:56 PM 41.0 °F 39.0 °F 33.8 °F 76% 30.07 in 10.0 mi East 3.5 mph - N/A   Overcast
3:16 PM 39.2 °F 34.2 °F 33.8 °F 81% 30.09 in 10.0 mi WNW 6.9 mph - N/A   Overcast
3:36 PM 41.0 °F 37.1 °F 33.8 °F 76% 30.11 in 10.0 mi WSW 5.8 mph - N/A   Overcast
3:56 PM 42.8 °F 38.0 °F 33.8 °F 70% 30.12 in 10.0 mi SW 8.1 mph - N/A   Overcast
4:16 PM 42.8 °F 38.0 °F 33.8 °F 70% 30.13 in 10.0 mi SW 8.1 mph - N/A   Overcast
4:36 PM 42.8 °F 37.5 °F 33.8 °F 70% 30.15 in 10.0 mi SW 9.2 mph - N/A   Overcast
4:56 PM 41.0 °F 35.8 °F 33.8 °F 76% 30.16 in 10.0 mi WSW 8.1 mph - N/A   Overcast
5:16 PM 42.8 °F 38.0 °F 33.8 °F 70% 30.17 in 10.0 mi SW 8.1 mph - N/A   Overcast
5:36 PM 42.8 °F 38.0 °F 33.8 °F 70% 30.19 in 10.0 mi SW 8.1 mph - N/A   Overcast
5:56 PM 42.8 °F 35.1 °F 33.8 °F 70% 30.20 in 10.0 mi SW 16.1 mph 21.9 mph N/A   Overcast
6:16 PM 42.8 °F 35.1 °F 33.8 °F 70% 30.21 in 10.0 mi WSW 16.1 mph 21.9 mph N/A   Overcast
6:36 PM 42.8 °F 35.4 °F 33.8 °F 70% 30.22 in 10.0 mi SW 15.0 mph 23.0 mph N/A   Overcast
6:56 PM 42.8 °F 35.1 °F 32.0 °F 66% 30.24 in 10.0 mi SW 16.1 mph 23.0 mph N/A   Overcast
7:16 PM 41.0 °F 33.1 °F 32.0 °F 70% 30.25 in 10.0 mi SW 15.0 mph 20.7 mph N/A   Overcast
7:36 PM 42.8 °F 35.8 °F 30.2 °F 61% 30.26 in 10.0 mi SW 13.8 mph - N/A   Overcast
7:56 PM 42.8 °F 37.0 °F 30.2 °F 61% 30.27 in 10.0 mi SW 10.4 mph - N/A   Overcast
8:16 PM 41.0 °F 34.7 °F 30.2 °F 65% 30.28 in 10.0 mi SW 10.4 mph - N/A   Overcast
8:36 PM 42.8 °F 35.8 °F 30.2 °F 61% 30.29 in 10.0 mi SW 13.8 mph - N/A   Overcast
8:56 PM 42.8 °F 37.5 °F 30.2 °F 61% 30.30 in 10.0 mi SW 9.2 mph 16.1 mph N/A   Overcast
9:16 PM 42.8 °F 37.5 °F 30.2 °F 61% 30.31 in 10.0 mi SSW 9.2 mph - N/A   Overcast
9:36 PM 42.8 °F 38.6 °F 30.2 °F 61% 30.32 in 10.0 mi SSW 6.9 mph - N/A   Overcast
9:56 PM 42.8 °F 36.6 °F 32.0 °F 66% 30.32 in 10.0 mi SSW 11.5 mph 16.1 mph N/A   Overcast
10:16 PM 42.8 °F 38.6 °F 30.2 °F 61% 30.32 in 10.0 mi South 6.9 mph - N/A   Overcast
10:36 PM 42.8 °F 38.6 °F 30.2 °F 61% 30.33 in 10.0 mi South 6.9 mph - N/A   Overcast
10:56 PM 41.0 °F 35.8 °F 30.2 °F 65% 30.33 in 10.0 mi SE 8.1 mph - N/A   Overcast
11:16 PM 42.8 °F 38.0 °F 28.4 °F 57% 30.34 in 10.0 mi SE 8.1 mph - N/A   Overcast
11:36 PM 41.0 °F 35.8 °F 28.4 °F 61% 30.35 in 10.0 mi SSE 8.1 mph - N/A   Overcast
11:56 PM 42.8 °F 38.0 °F 28.4 °F 57% 30.36 in 10.0 mi SSE 8.1 mph - N/A   Overcast